Location: Zagreb
(45.8000°N, 16.0000°E)
Time: 00:24:57
(UTC+01:00)

Transit 2A Rocket - Pass Details

Date: 11 October 2020
Orbit: 586 x 916 km, 66.7° (Epoch: 28 October)

Event Time Altitude Azimuth Distance (km) Brightness Sun altitude
Rises 23:17:46 0° 326° (NW) 3,379 9.0 -47.5°
Enters shadow 23:19:56 - 326° (NW) 2,546 8.2 -47.7°
Reaches altitude 10° 23:20:19 10° 326° (NW) 2,393 - -47.8°
Maximum altitude 23:25:49 85° 239° (WSW) 758 - -48.2°
Drops below altitude 10° 23:30:45 10° 151° (SSE) 2,154 - -48.6°
Sets 23:32:57 0° 151° (SSE) 3,019 - -48.8°
